Starlink 30249

operational
NORAD ID: 57618 Int'l Des: 2023-119 Owner: SPXS Country: US Constellation: starlink
LEOCIRCULAR

Starlink 30249について

説明を読み込み中...

リアルタイム位置

3D地球を読み込み中...

次回通過

高度履歴

Altitude vs Time

uPlot chart will show altitude changes over time

軌道要素

1 57618U 23119S 26035.33769982 .00000230 00000-0 32084-4 0 9992
2 57618 43.0028 263.2875 0001075 271.7907 88.2813 15.02536449138062
Epoch: Feb 4, 2026 • Age: 12 hours

現在のステータス

高度 569.4 km
速度 7.58 km/s
衛星直下点 -37.33°S, 54.73°E
打ち上げ日 Aug 11, 2023
運用期間 2.4 years
タイプ internet

技術仕様

分類 Payload
質量 730.00 kg
乾燥質量 700.00 kg
総質量 730.00 kg
長さ 0.30 m
直径 4.10 m
スパン 29.00 m
形状 Box + pan
製造者 SPXS
バスタイプ Starlink V2M
フェーズステータス In Orbit
所有者/国 SPXS/US

大規模コンステレーション

Loading constellations...